This is the latest recevied weather packets stored in our database for station/object DC1RS. If no packets are shown the sender has not sent any weather packets the latest 10 day(s).
| Time | Temp. | Humidity | Pressure | Rain* | Wind** | Luminosity | Snow |
|---|---|---|---|---|---|---|---|
| 1778015082 | 16.11° C | 78% | 1006.2 hPa | 0 mm | - | 0 W/m² | - |
| 1778013981 | 16.11° C | 77% | 1005.9 hPa | 0 mm | - | 0 W/m² | - |
| 1778012691 | 16.67° C | 73% | 1005.9 hPa | 0 mm | - | 0 W/m² | - |
| 1778012361 | 16.67° C | 73% | 1005.7 hPa | 0 mm | - | 0 W/m² | - |
| 1778010343 | 16.67° C | 74% | 1005.3 hPa | 0 mm | - | 0 W/m² | - |
| 1778008811 | 16.11° C | 78% | 1004.3 hPa | 0 mm | - | 0 W/m² | - |
| 1778007221 | 16.67° C | 79% | 1004.3 hPa | 0 mm | - | 0 W/m² | - |
| 1778006121 | 17.22° C | 77% | 1004.3 hPa | 0 mm | - | 0 W/m² | - |
| 1778004531 | 18.33° C | 65% | 1004.2 hPa | 0 mm | - | 3 W/m² | - |
| 1778002941 | 19.44° C | 55% | 1004.1 hPa | 0 mm | - | 18 W/m² | - |
| 1778001351 | 20.56° C | 54% | 1003.3 hPa | 0 mm | - | 27 W/m² | - |
| 1777999491 | 24.44° C | 35% | 1002.4 hPa | 0 mm | - | 43 W/m² | - |
| 1777997931 | 25° C | 37% | 1002.7 hPa | 0 mm | - | 55 W/m² | - |
| 1777996371 | 25.56° C | 36% | 1002.7 hPa | 0 mm | - | 96 W/m² | - |
| 1777994781 | 26.11° C | 35% | 1002.9 hPa | 0 mm | - | 215 W/m² | - |
| 1777993221 | 26.11° C | 35% | 1003 hPa | 0 mm | - | 317 W/m² | - |
| 1777991631 | 26.11° C | 35% | 1003.3 hPa | 0 mm | - | 511 W/m² | - |
| 1777988841 | 26.11° C | 35% | 1004 hPa | 0 mm | - | 560 W/m² | - |
| 1777988211 | 26.11° C | 38% | 1004 hPa | 0 mm | - | 612 W/m² | - |
| 1777986681 | 27.22° C | 32% | 1004.5 hPa | 0 mm | - | 660 W/m² | - |
| 1777984461 | 26.67° C | 35% | 1004.7 hPa | 0 mm | - | 726 W/m² | - |
| 1777982871 | 25.56° C | 42% | 1005.3 hPa | 0 mm | - | 810 W/m² | - |
| 1777981566 | 25.56° C | 44% | 1005.6 hPa | 0 mm | - | 799 W/m² | - |
| 1777979831 | 25.56° C | 43% | 1005.9 hPa | 0 mm | - | 832 W/m² | - |
| 1777978271 | 24.44° C | 50% | 1006.5 hPa | 0 mm | - | 378 W/m² | - |
* Rain latest hour (hover to see other rain measurements)
** Current wind speed in m/s (hover to see current wind gust speed)